Wind from 120 at 4 knots

Air temperature 7.0° C
Dewpoint 2.0° C

Last reported at 2014-Apr-24 10:20 UTC.
Time now 2014-Apr-24 13:33 UTC

Location: N 67°31' E 012°06'.
View on Google Maps.

See reports from other nearby stations

Tides Stations Pressure Air Temp Water Temp Dewpoint Dewpoint depression Visibility Wind Speed Wind Dir Waves Ship positions

  
sailing weather and tide predictions

ROST FLYPLASS weather

date/time (UTC)wind fromknots sea level pressurealtimeterstation pressurevisibilityair tempwater tempwave heightnotes
2014-Apr-24 11:50 170 4 9.0
2014-Apr-24 10:20 120 4 7.0
2014-Apr-24 09:50 110 4 7.0
2014-Apr-24 06:50 110 8 6.0
2014-Apr-24 06:20 110 9 5.0
2014-Apr-24 05:50 100 9 5.0
2014-Apr-24 04:50 100 9 5.0
2014-Apr-23 18:20 070 12 4.0
2014-Apr-23 17:50 070 12 4.0
2014-Apr-23 16:50 070 11 5.0
2014-Apr-23 16:20 070 11 5.0
2014-Apr-23 15:50 070 10 5.0
2014-Apr-23 15:20 070 10 5.0
2014-Apr-23 14:50 070 10 5.0
2014-Apr-23 14:20 070 10 4.0
2014-Apr-23 13:50 080 10 5.0
2014-Apr-23 13:20 090 8 5.0
2014-Apr-23 12:50 090 7 5.0
2014-Apr-23 11:20 110 7 5.0
2014-Apr-23 10:50 100 6 5.0
2014-Apr-23 06:50 050 4 5.4 4.0
2014-Apr-23 06:20 050 5 5.4 4.0
2014-Apr-23 05:50 030 5 5.4 4.0
2014-Apr-23 05:20 360 8 5.4 3.0
2014-Apr-23 04:50 360 10 5.4 3.0
2014-Apr-22 18:20 300 16 5.4 3.0
2014-Apr-22 17:50 320 16 5.4 3.0
2014-Apr-22 17:20 320 16 5.4 3.0
2014-Apr-22 16:50 310 16 5.4 3.0
2014-Apr-22 16:20 310 17 5.4 3.0
2014-Apr-22 15:50 310 15 5.4 3.0
2014-Apr-22 15:20 310 19 5.4 3.0
2014-Apr-22 14:50 310 16 5.4 4.0
2014-Apr-22 14:20 310 16 5.4 3.0
2014-Apr-22 13:20 310 18 5.4 3.0